Weather History for Leesburg, FL

Change the Weather History Date:

Monday, August 4, 2014

  Actual Average Record
Temperature  
Mean Temperature 85 °F -  
Max Temperature 93 °F 91 °F 98 °F (1991)
Min Temperature 77 °F 72 °F 66 °F (1966)
Cooling Degree Days 20    
Growing Degree Days 35 (Base 50)    
Moisture  
Dew Point 75 °F    
Average Humidity 84    
Maximum Humidity 94    
Minimum Humidity 55    
Precipitation  
Precipitation 0.27 in - - ()
Sea Level Pressure  
Sea Level Pressure 29.94 in    
Wind  
Wind Speed 4 mph (NNW)    
Max Wind Speed 15 mph    
Max Gust Speed 26 mph    
Visibility 10 miles    
Events Rain , Thunderstorm    
Averages and records for this station are not official NWS values.
T = Trace of Precipitation, MM = Missing Value Source: NWS Daily Summary

Daily Weather History Graph

Daily Weather History Graph

Search for Another Location

Airport:

Trip Planner

Search our weather history database for the weather conditions in past years. The results will help you decide how hot, cold, wet, or windy it might be!

Date:

Astronomy

Aug. 04, 2014 Rise Set
Actual Time 6:50 AM EDT 8:16 PM EDT
Civil Twilight 6:24 AM EDT 8:41 PM EDT
Nautical Twilight 5:54 AM EDT 9:11 PM EDT
Astronomical Twilight 5:22 AM EDT 9:43 PM EDT
Moon 2:28 PM EDT (8/4) 12:51 AM EDT (8/4)
Length of Visible Light 14h 16m
Length of Day
13h 26m
First Quarter, 57% of the Moon is Illuminated
Aug 4
First Quarter
Aug 10
Full
Aug 17
Last Quarter
Aug 25
New
Sep 2
First Quarter

Hourly Weather History & Observations

Time (EDT) Temp. Heat Index Dew Point Humidity Pressure Visibility Wind Dir Wind Speed Gust Speed Precip Events Conditions
12:04 AM 80.1 °F 85.4 °F 75.9 °F 87% 29.95 in 10.0 mi West 3.5 mph - N/A   Overcast
12:15 AM 80.1 °F 85.4 °F 75.9 °F 87% 29.95 in 10.0 mi NNW 3.5 mph - N/A   Scattered Clouds
1:29 AM 79.0 °F - 75.9 °F 90% 29.93 in 10.0 mi Calm Calm - N/A   Mostly Cloudy
1:45 AM 79.0 °F - 75.9 °F 90% 29.93 in 10.0 mi NW 3.5 mph - N/A   Scattered Clouds
1:53 AM 78.1 °F - 75.0 °F 90% 29.93 in 10.0 mi North 3.5 mph - N/A   Partly Cloudy
2:53 AM 78.1 °F - 75.9 °F 93% 29.92 in 10.0 mi Calm Calm - N/A   Mostly Cloudy
3:38 AM 79.0 °F - 75.9 °F 90% 29.90 in 10.0 mi North 4.6 mph - N/A   Scattered Clouds
3:53 AM 78.1 °F - 75.9 °F 93% 29.90 in 10.0 mi North 5.8 mph - N/A   Scattered Clouds
4:07 AM 78.1 °F - 75.0 °F 90% 29.90 in 10.0 mi North 5.8 mph - N/A   Mostly Cloudy
4:23 AM 78.1 °F - 75.0 °F 90% 29.90 in 10.0 mi North 4.6 mph - N/A   Scattered Clouds
4:53 AM 78.1 °F - 75.0 °F 90% 29.90 in 10.0 mi North 4.6 mph - N/A   Clear
5:32 AM 78.1 °F - 75.9 °F 93% 29.91 in 10.0 mi Calm Calm - N/A   Mostly Cloudy
5:46 AM 78.1 °F - 75.9 °F 93% 29.91 in 10.0 mi NE 3.5 mph - N/A   Scattered Clouds
6:03 AM 78.1 °F - 75.0 °F 90% 29.92 in 10.0 mi NNE 3.5 mph - N/A   Partly Cloudy
6:24 AM 77.0 °F - 75.0 °F 94% 29.92 in 10.0 mi NE 4.6 mph - N/A   Mostly Cloudy
6:36 AM 77.0 °F - 75.0 °F 94% 29.93 in 10.0 mi NNE 3.5 mph - N/A   Scattered Clouds
6:53 AM 78.1 °F - 75.9 °F 93% 29.93 in 10.0 mi Calm Calm - N/A   Mostly Cloudy
7:10 AM 78.1 °F - 75.9 °F 93% 29.94 in 10.0 mi Calm Calm - N/A   Overcast
7:26 AM 78.1 °F - 75.9 °F 93% 29.94 in 10.0 mi Calm Calm - N/A   Mostly Cloudy
7:36 AM 78.1 °F - 75.9 °F 93% 29.94 in 10.0 mi Calm Calm - N/A   Mostly Cloudy
7:48 AM 78.8 °F - 75.2 °F 89% 29.94 in 10.0 mi Calm Calm - N/A   Scattered Clouds
8:00 AM 80.1 °F 85.8 °F 77.0 °F 90% 29.95 in 10.0 mi NW 3.5 mph - N/A   Mostly Cloudy
8:08 AM 80.1 °F 85.8 °F 77.0 °F 90% 29.95 in 10.0 mi Calm Calm - N/A   Mostly Cloudy
8:21 AM 80.1 °F 85.8 °F 77.0 °F 90% 29.95 in 10.0 mi NW 5.8 mph - N/A   Scattered Clouds
8:36 AM 81.0 °F 87.3 °F 75.9 °F 85% 29.95 in 10.0 mi NW 5.8 mph - N/A   Mostly Cloudy
8:49 AM 82.4 °F 89.5 °F 75.2 °F 79% 29.95 in 10.0 mi NNW 4.6 mph - N/A   Mostly Cloudy
8:53 AM 81.0 °F 87.3 °F 75.9 °F 85% 29.95 in 10.0 mi NNW 3.5 mph - N/A   Mostly Cloudy
9:01 AM 82.0 °F 89.4 °F 75.9 °F 82% 29.96 in 10.0 mi North 4.6 mph - N/A   Mostly Cloudy
9:07 AM 82.0 °F 89.4 °F 75.9 °F 82% 29.96 in 10.0 mi West 3.5 mph - N/A   Overcast
9:53 AM 84.9 °F 94.1 °F 75.9 °F 74% 29.96 in 10.0 mi Variable 4.6 mph - N/A   Partly Cloudy
10:28 AM 84.9 °F 93.3 °F 75.0 °F 72% 29.96 in 10.0 mi West 6.9 mph - N/A   Mostly Cloudy
10:53 AM 86.0 °F 95.1 °F 75.0 °F 70% 29.96 in 10.0 mi NW 4.6 mph - N/A   Mostly Cloudy
11:17 AM 87.1 °F 96.3 °F 75.0 °F 67% 29.96 in 10.0 mi NNW 6.9 mph - N/A   Mostly Cloudy
11:53 AM 88.0 °F 96.5 °F 73.9 °F 63% 29.96 in 10.0 mi Variable 3.5 mph - 0.00 in   Mostly Cloudy
12:53 PM 89.1 °F 99.1 °F 75.0 °F 63% 29.94 in 10.0 mi NNW 8.1 mph - N/A   Clear
1:53 PM 90.0 °F 100.2 °F 75.0 °F 61% 29.91 in 10.0 mi NW 8.1 mph - N/A   Partly Cloudy
2:53 PM 93.0 °F 104.6 °F 75.0 °F 56% 29.91 in 10.0 mi WNW 6.9 mph - N/A   Partly Cloudy
3:53 PM 91.0 °F 100.4 °F 73.9 °F 57% 29.89 in 10.0 mi NW 11.5 mph - N/A   Clear
4:53 PM 91.0 °F 99.3 °F 73.0 °F 55% 29.89 in 10.0 mi WNW 4.6 mph - N/A   Partly Cloudy
5:05 PM 91.0 °F 99.3 °F 73.0 °F 55% 29.90 in 10.0 mi North 8.1 mph - N/A Thunderstorm Mostly Cloudy
5:24 PM 81.0 °F 86.2 °F 73.9 °F 79% 29.91 in 10.0 mi ENE 15.0 mph 26.5 mph 0.02 in Rain , Thunderstorm Light Thunderstorms and Rain
5:53 PM 80.1 °F 85.1 °F 75.0 °F 85% 29.91 in 10.0 mi East 3.5 mph - 0.09 in Thunderstorm Thunderstorm
6:14 PM 80.1 °F 85.1 °F 75.0 °F 85% 29.93 in 2.5 mi NNE 13.8 mph 21.9 mph 0.08 in Rain , Thunderstorm Rain
6:18 PM 78.1 °F - 75.0 °F 90% 29.94 in 1.2 mi ENE 11.5 mph 21.9 mph 0.15 in Rain , Thunderstorm Heavy Rain
6:27 PM 78.1 °F - 73.9 °F 87% 29.93 in 3.0 mi East 6.9 mph - 0.17 in Rain , Thunderstorm Light Rain
6:44 PM 78.1 °F - 73.9 °F 87% 29.94 in 10.0 mi NE 4.6 mph - 0.18 in Thunderstorm Thunderstorm
6:53 PM 78.1 °F - 73.9 °F 87% 29.94 in 10.0 mi East 3.5 mph - 0.18 in Thunderstorm Thunderstorm
7:02 PM 78.1 °F - 73.9 °F 87% 29.94 in 10.0 mi East 5.8 mph - N/A   Overcast
7:12 PM 78.1 °F - 73.9 °F 87% 29.94 in 10.0 mi SE 8.1 mph - N/A   Mostly Cloudy
7:53 PM 77.0 °F - 73.9 °F 90% 29.94 in 10.0 mi Calm Calm - N/A   Clear
8:53 PM 78.1 °F - 75.0 °F 90% 29.94 in 10.0 mi NW 4.6 mph - N/A   Partly Cloudy
9:53 PM 78.1 °F - 75.0 °F 90% 29.96 in 10.0 mi WSW 5.8 mph - N/A   Clear
10:53 PM 77.0 °F - 75.0 °F 94% 29.98 in 10.0 mi West 3.5 mph - N/A   Clear
11:44 PM 78.1 °F - 75.9 °F 93% 29.99 in 10.0 mi West 5.8 mph - N/A   Partly Cloudy
11:53 PM 78.1 °F - 75.9 °F 93% 29.99 in 10.0 mi West 5.8 mph - N/A   Clear